Location: Huntsville
(41.2590°N, 111.7678°W)
Time: 06:33:36
(UTC+00:00)

Courier 1B Rocket - Pass Details

Date: 21 June 2021
Orbit: 920 x 1202 km, 28.2° (Epoch: 01 August)

Event Time Altitude Azimuth Distance (km) Brightness Sun altitude
Rises 02:28:37 0° 236° (SW) 3,835 8.5 4.9°
Reaches altitude 10° 02:31:57 10° 223° (SW) 2,829 7.7 4.3°
Maximum altitude 02:37:13 24° 173° (S) 1,926 6.3 3.4°
Drops below altitude 10° 02:42:15 10° 121° (ESE) 2,686 6.7 2.6°
Sets 02:45:20 0° 108° (ESE) 3,599 7.3 2.1°
